Date String (YYYY-MM-DD hh:mm:ss) UTC,Instrument flags,Ambient pressure (hPa),Sample flow (lpm),Bypass flow (lpm),Sample temperature (°C),Ambient temperature (°C),ASC tube jacket temperature (°C),LED temperature (°C),Box temperature (°C),Sample RH (%),Span deviation,Mass concentration (μg/m³),Mass concentration (μg/m³),Mass concentration (μg/m³)
DateTimeUTC,F1_M11,P_M11,Q1_M11,Q2_M11,T1_M11,T2_M11,T3_M11,T4_M11,T5_M11,U1_M11,ZSPAN_M11,X0_M11,X2_M11,X1_M11
2022-01-11 21:00:00,,0830.1,5.01,0.00,23.6,23.0,00.0,32.6,25.5,05.9,0000.0,0002.62,0000.98,0000.56
2022-01-11 21:01:00,,0830.1,4.99,0.00,23.6,23.0,00.0,32.6,25.5,05.9,0000.0,0002.65,0001.00,0000.57
2022-01-11 21:02:00,,0830.1,5.02,0.00,23.6,23.0,00.0,32.6,25.5,05.8,0000.0,0002.82,0001.01,0000.58
2022-01-11 21:03:00,,0830.1,4.98,0.00,23.6,23.0,00.0,32.6,25.5,05.7,0000.0,0003.53,0001.01,0000.59
2022-01-11 21:04:00,,0830.1,5.01,0.00,23.7,23.1,00.0,32.6,25.5,05.9,0000.0,0003.73,0000.97,0000.59
2022-01-11 21:05:00,,0830.1,5.00,0.00,23.7,23.1,00.0,32.6,25.5,05.6,0000.0,0003.38,0000.93,0000.57
2022-01-11 21:06:00,,0830.2,5.01,0.00,23.7,23.1,00.0,32.6,25.5,05.5,0000.0,0003.27,0000.88,0000.55
2022-01-11 21:07:00,,0830.3,4.99,0.00,23.7,23.2,00.0,32.6,25.6,06.2,0000.0,0003.37,0000.88,0000.54
2022-01-11 21:08:00,,0830.3,5.01,0.00,23.8,23.2,00.0,32.6,25.6,09.8,0000.0,0004.16,0001.18,0000.68
2022-01-11 21:09:00,,0830.3,5.00,0.00,23.8,23.3,00.0,32.7,25.6,07.7,0000.0,0006.85,0001.46,0000.83
2022-01-11 21:10:00,,0830.4,5.00,0.00,23.8,23.3,00.0,32.7,25.7,07.6,0000.0,0007.70,0001.66,0000.93
2022-01-11 21:11:00,,0830.4,4.98,0.00,23.9,23.3,00.0,32.7,25.7,07.2,0000.0,0008.23,0001.90,0001.01
2022-01-11 21:12:00,,0830.5,5.01,0.00,23.9,23.3,00.0,32.7,25.8,08.8,0000.0,0010.15,0002.31,0001.17
2022-01-11 21:13:00,,0830.4,4.99,0.00,23.9,23.3,00.0,32.7,25.8,10.0,0000.0,0010.96,0002.79,0001.45
2022-01-11 21:14:00,,0830.4,5.01,0.00,23.9,23.4,00.0,32.8,25.9,09.0,0000.0,0011.53,0003.16,0001.71
2022-01-11 21:15:00,,0830.4,4.99,0.00,23.9,23.4,00.0,32.8,25.9,08.9,0000.0,0012.25,0003.42,0001.95
2022-01-11 21:16:00,,0830.4,5.01,0.00,24.0,23.4,00.0,32.8,25.9,09.0,0000.0,0012.82,0003.59,0002.21
2022-01-11 21:17:00,,0830.4,4.99,0.00,24.0,23.4,00.0,32.8,25.9,10.0,0000.0,0013.24,0003.81,0002.48
2022-01-11 21:18:00,,0830.4,5.01,0.00,24.0,23.4,00.0,32.8,25.9,10.7,0000.0,0013.78,0004.08,0002.82
2022-01-11 21:19:00,,0830.4,5.00,0.00,24.0,23.4,00.0,32.9,25.9,10.1,0000.0,0014.24,0004.21,0003.09
2022-01-11 21:20:00,,0830.4,4.99,0.00,24.0,23.5,00.0,32.9,25.9,10.8,0000.0,0013.62,0004.36,0003.28
2022-01-11 21:21:00,,0830.4,5.02,0.00,24.0,23.5,00.0,32.9,25.9,11.0,0000.0,0013.73,0004.61,0003.50
2022-01-11 21:22:00,,0830.4,4.98,0.00,24.1,23.5,00.0,32.9,26.0,11.1,0000.0,0013.89,0004.84,0003.73
2022-01-11 21:23:00,,0830.4,5.01,0.00,24.1,23.5,00.0,32.9,26.0,10.9,0000.0,0012.98,0005.00,0003.93
2022-01-11 21:24:00,,0830.4,4.98,0.00,24.1,23.5,00.0,32.9,26.0,10.3,0000.0,0012.74,0005.09,0004.05
2022-01-11 21:25:00,,0830.4,5.01,0.00,24.1,23.5,00.0,33.0,26.0,10.3,0000.0,0012.30,0005.19,0004.20
2022-01-11 21:26:00,,0830.4,5.00,0.00,24.1,23.6,00.0,33.0,26.0,10.4,0000.0,0012.17,0005.30,0004.35
2022-01-11 21:27:00,,0830.4,5.00,0.00,24.2,23.6,00.0,33.0,26.1,10.0,0000.0,0012.23,0005.48,0004.52
2022-01-11 21:28:00,,0830.5,4.99,0.00,24.2,23.6,00.0,33.0,26.1,10.4,0000.0,0013.22,0005.67,0004.68
2022-01-11 21:29:00,,0830.6,5.02,0.00,24.2,23.6,00.0,33.0,26.1,10.6,0000.0,0013.29,0005.79,0004.80
2022-01-11 21:30:00,,0830.6,4.99,0.00,24.2,23.6,00.0,33.0,26.1,10.4,0000.0,0013.76,0005.94,0004.92
2022-01-11 21:31:00,,0830.5,5.00,0.00,24.2,23.7,00.0,33.0,26.1,10.4,0000.0,0014.20,0006.17,0005.07
2022-01-11 21:32:00,,0830.5,5.00,0.00,24.3,23.7,00.0,33.1,26.2,10.5,0000.0,0014.81,0006.30,0005.19
2022-01-11 21:33:00,,0830.4,5.00,0.00,24.3,23.7,00.0,33.1,26.2,10.4,0000.0,0015.22,0006.50,0005.32
2022-01-11 21:34:00,,0830.4,4.99,0.00,24.3,23.7,00.0,33.1,26.2,10.4,0000.0,0015.08,0006.65,0005.45
2022-01-11 21:35:00,,0830.5,5.01,0.00,24.3,23.7,00.0,33.1,26.2,10.5,0002.1,0016.47,0006.81,0005.58
2022-01-11 21:36:00,,0830.5,5.01,0.00,24.3,23.7,00.0,33.2,26.3,10.4,0002.9,0017.38,0007.01,0005.72
2022-01-11 21:37:00,,0830.6,4.98,0.00,24.3,23.8,00.0,33.2,26.3,10.3,0002.7,0017.53,0007.21,0005.88
2022-01-11 21:38:00,,0830.6,5.01,0.00,24.4,23.8,00.0,33.2,26.3,10.1,0002.8,0017.76,0007.37,0006.03
2022-01-11 21:39:00,,0830.6,5.00,0.00,24.4,23.8,00.0,33.2,26.3,10.3,0002.7,0017.71,0007.58,0006.18
2022-01-11 21:40:00,,0830.6,5.00,0.00,24.4,23.8,00.0,33.2,26.3,09.5,0002.6,0018.43,0007.69,0006.29
2022-01-11 21:41:00,,0830.6,5.00,0.00,24.4,23.8,00.0,33.2,26.3,09.2,0002.6,0017.97,0007.74,0006.34
2022-01-11 21:42:00,,0830.6,4.99,0.00,24.4,23.9,00.0,33.3,26.3,09.1,0003.0,0017.08,0007.63,0006.32
2022-01-11 21:43:00,,0830.6,5.01,0.00,24.4,23.9,00.0,33.3,26.4,09.5,0003.0,0016.43,0007.58,0006.29
2022-01-11 21:44:00,,0830.6,4.98,0.00,24.5,23.9,00.0,33.3,26.4,09.4,0003.6,0015.94,0007.43,0006.23
2022-01-11 21:45:00,,0830.6,5.01,0.00,24.5,23.9,00.0,33.3,26.4,09.1,0003.7,0015.54,0007.25,0006.14
2022-01-11 21:46:00,,0830.6,5.00,0.00,24.5,23.9,00.0,33.3,26.4,09.0,0000.0,0014.03,0007.06,0006.01
2022-01-11 21:47:00,,0830.6,5.01,0.00,24.5,23.9,00.0,33.4,26.5,08.9,0000.0,0013.09,0006.86,0005.86
2022-01-11 21:48:00,,0830.6,5.00,0.00,24.5,23.9,00.0,33.4,26.5,09.0,0000.0,0012.66,0006.65,0005.68
2022-01-11 21:49:00,,0830.7,5.00,0.00,24.6,24.0,00.0,33.4,26.5,09.3,0000.0,0012.59,0006.42,0005.50
2022-01-11 21:50:00,,0830.8,5.00,0.00,24.6,24.0,00.0,33.4,26.5,09.4,0000.0,0011.72,0006.14,0005.31
2022-01-11 21:51:00,,0830.8,5.00,0.00,24.6,24.0,00.0,33.4,26.5,09.3,0000.0,0010.82,0005.90,0005.16
2022-01-11 21:52:00,,0830.7,5.01,0.00,24.6,24.0,00.0,33.4,26.5,09.2,0000.0,0010.61,0005.70,0005.03
2022-01-11 21:53:00,,0830.7,5.01,0.00,24.6,24.0,00.0,33.5,26.5,09.1,0000.0,0010.45,0005.57,0004.93
2022-01-11 21:54:00,,0830.7,4.99,0.00,24.6,24.0,00.0,33.5,26.6,09.2,0000.0,0010.22,0005.44,0004.84
2022-01-11 21:55:00,,0830.7,5.01,0.00,24.7,24.1,00.0,33.5,26.6,09.2,0000.0,0010.58,0005.35,0004.77
2022-01-11 21:56:00,,0830.7,4.99,0.00,24.7,24.1,00.0,33.5,26.6,09.3,0000.0,0010.72,0005.32,0004.72
2022-01-11 21:57:00,,0830.7,5.01,0.00,24.7,24.1,00.0,33.5,26.6,09.1,0000.0,0010.85,0005.32,0004.68
2022-01-11 21:58:00,,0830.7,5.00,0.00,24.7,24.1,00.0,33.5,26.7,09.1,0000.0,0010.78,0005.28,0004.66
2022-01-11 21:59:00,,0830.8,5.01,0.00,24.7,24.1,00.0,33.6,26.6,09.1,0000.0,0011.05,0005.27,0004.66
